This is the latest recevied weather packets stored in our database for station/object K0CVS. If no packets are shown the sender has not sent any weather packets the latest 10 day(s).
| Time | Temp. | Humidity | Pressure | Rain* | Wind** | Luminosity | Snow |
|---|---|---|---|---|---|---|---|
| 1777672744 | 18.33° C | 31% | 1016.7 hPa | 0 mm | - | 55 W/m² | - |
| 1777672441 | 18.33° C | 29% | 1016.7 hPa | 0 mm | - | 303 W/m² | - |
| 1777672136 | 18.33° C | 31% | 1016.7 hPa | 0 mm | - | 383 W/m² | - |
| 1777671831 | 17.78° C | 31% | 1016.7 hPa | 0 mm | - | 392 W/m² | - |
| 1777671527 | 18.33° C | 32% | 1016.8 hPa | 0 mm | - | 68 W/m² | - |
| 1777671224 | 17.78° C | 33% | 1016.9 hPa | 0 mm | - | 422 W/m² | - |
| 1777670920 | 17.78° C | 33% | 1016.9 hPa | 0 mm | - | 252 W/m² | - |
| 1777670617 | 17.22° C | 35% | 1017 hPa | 0 mm | - | 134 W/m² | - |
| 1777670314 | 17.22° C | 35% | 1017.1 hPa | 0 mm | - | 81 W/m² | - |
| 1777670011 | 17.22° C | 34% | 1017.1 hPa | 0 mm | - | 72 W/m² | - |
| 1777669708 | 17.78° C | 34% | 1017.4 hPa | 0 mm | - | 91 W/m² | - |
| 1777669406 | 18.33° C | 35% | 1017.1 hPa | 0 mm | - | 93 W/m² | - |
| 1777669102 | 18.33° C | 35% | 1017.3 hPa | 0 mm | - | 119 W/m² | - |
| 1777668799 | 17.78° C | 35% | 1017.4 hPa | 0 mm | - | 359 W/m² | - |
| 1777668496 | 17.22° C | 33% | 1017.6 hPa | 0 mm | - | 648 W/m² | - |
| 1777668192 | 17.78° C | 35% | 1017.9 hPa | 0 mm | - | 116 W/m² | - |
| 1777667888 | 17.78° C | 34% | 1017.7 hPa | 0 mm | - | 80 W/m² | - |
| 1777667586 | 17.78° C | 34% | 1017.7 hPa | 0 mm | - | 87 W/m² | - |
| 1777667283 | 17.22° C | 36% | 1017.6 hPa | 0 mm | - | 482 W/m² | - |
| 1777666979 | 17.22° C | 34% | 1017.9 hPa | 0 mm | - | 151 W/m² | - |
| 1777666676 | 17.78° C | 33% | 1017.8 hPa | 0 mm | - | 96 W/m² | - |
| 1777666373 | 17.78° C | 33% | 1017.8 hPa | 0 mm | - | 80 W/m² | - |
| 1777666070 | 18.33° C | 33% | 1017.8 hPa | 0 mm | - | 151 W/m² | - |
| 1777665767 | 18.89° C | 33% | 1018.1 hPa | 0 mm | - | 514 W/m² | - |
| 1777665464 | 18.89° C | 33% | 1018.1 hPa | 0 mm | - | 707 W/m² | - |
* Rain latest hour (hover to see other rain measurements)
** Current wind speed in m/s (hover to see current wind gust speed)